Stations météo

Publicité
Moskva, Russie (27612): Température de l'air & dewpoint: 17.07.2018 20:00:00 - 23.07.2018 20:00:00 (MSK)Moskva, Russie (27612): Vitesse du vent: 17.07.2018 20:00:00 - 23.07.2018 20:00:00 (MSK)Moskva, Russie (27612): Direction du vent: 17.07.2018 20:00:00 - 23.07.2018 20:00:00 (MSK)Moskva, Russie (27612): reduced air pressure: 17.07.2018 20:00:00 - 23.07.2018 20:00:00 (MSK)Moskva, Russie (27612): visibility: 17.07.2018 20:00:00 - 23.07.2018 20:00:00 (MSK)
Date & Time tt [°C] td [°C] ff [km/h] ff [knt] dd ppp [hPa] vv [km]
23.07.2018 20:00:00 - - - - - - -
23.07.2018 19:00:00 - - - - - - -
23.07.2018 18:00:00 21,0 13,5 4 2 SE 1011,7 10
23.07.2018 17:00:00 - - - - - - -
23.07.2018 16:00:00 - - - - - - -
23.07.2018 15:00:00 22,5 13,8 4 2 E 1011,5 10
23.07.2018 14:00:00 - - - - - - -
23.07.2018 13:00:00 - - - - - - -
23.07.2018 12:00:00 21,8 15,7 4 2 ESE 1011,2 10
23.07.2018 11:00:00 - - - - - - -
23.07.2018 10:00:00 - - - - - - -
23.07.2018 09:00:00 17,9 16,6 4 2 ENE 1011,9 4,0
23.07.2018 08:00:00 - - - - - - -
23.07.2018 07:00:00 - - - - - - -
23.07.2018 06:00:00 18,1 16,2 4 2 E 1011,2 4,0
23.07.2018 05:00:00 - - - - - - -
23.07.2018 04:00:00 - - - - - - -
23.07.2018 03:00:00 18,7 16,3 4 2 ENE 1011,1 -
23.07.2018 02:00:00 - - - - - - -
23.07.2018 01:00:00 - - - - - - -
23.07.2018 00:00:00 19,9 16,5 4 2 ENE 1011,4 -
22.07.2018 23:00:00 - - - - - - -
22.07.2018 22:00:00 - - - - - - -
22.07.2018 21:00:00 19,9 16,9 4 2 E 1010,4 10
22.07.2018 20:00:00 - - - - - - -
22.07.2018 19:00:00 - - - - - - -
22.07.2018 18:00:00 23,7 18,2 4 2 ENE 1009,2 10
22.07.2018 17:00:00 - - - - - - -
22.07.2018 16:00:00 - - - - - - -
22.07.2018 15:00:00 21,6 18,6 4 2 SSE 1009,9 4,0
22.07.2018 14:00:00 - - - - - - -
22.07.2018 13:00:00 - - - - - - -
22.07.2018 12:00:00 21,5 17,9 4 2 ENE 1010,3 10
22.07.2018 11:00:00 - - - - - - -
22.07.2018 10:00:00 - - - - - - -
22.07.2018 09:00:00 20,1 17,4 4 2 ENE 1010,2 4,0
22.07.2018 08:00:00 - - - - - - -
22.07.2018 07:00:00 - - - - - - -
22.07.2018 06:00:00 19,8 17,6 0 0 N 1009,9 4,0
22.07.2018 05:00:00 - - - - - - -
22.07.2018 04:00:00 - - - - - - -
22.07.2018 03:00:00 20,8 18,0 4 2 E 1009,4 -
22.07.2018 02:00:00 - - - - - - -
22.07.2018 01:00:00 - - - - - - -
22.07.2018 00:00:00 21,0 18,5 0 0 N 1009,3 -
21.07.2018 23:00:00 - - - - - - -
21.07.2018 22:00:00 - - - - - - -
21.07.2018 21:00:00 22,4 18,6 4 2 E 1009,1 10
21.07.2018 20:00:00 - - - - - - -
21.07.2018 19:00:00 - - - - - - -
21.07.2018 18:00:00 25,4 18,4 4 2 ENE 1007,7 10
21.07.2018 17:00:00 - - - - - - -
21.07.2018 16:00:00 - - - - - - -
21.07.2018 15:00:00 24,3 18,5 4 2 ENE 1007,8 10
21.07.2018 14:00:00 - - - - - - -
21.07.2018 13:00:00 - - - - - - -
21.07.2018 12:00:00 22,0 18,6 4 2 E 1008,2 10
21.07.2018 11:00:00 - - - - - - -
21.07.2018 10:00:00 - - - - - - -
21.07.2018 09:00:00 20,0 18,2 4 2 ENE 1007,6 4,0
21.07.2018 08:00:00 - - - - - - -
21.07.2018 07:00:00 - - - - - - -
21.07.2018 06:00:00 20,1 18,6 4 2 ESE 1007,0 4,0
21.07.2018 05:00:00 - - - - - - -
21.07.2018 04:00:00 - - - - - - -
21.07.2018 03:00:00 20,3 18,5 4 2 ESE 1006,5 -
21.07.2018 02:00:00 - - - - - - -
21.07.2018 01:00:00 - - - - - - -
21.07.2018 00:00:00 21,4 18,7 4 2 ESE 1005,9 -
20.07.2018 23:00:00 - - - - - - -
20.07.2018 22:00:00 - - - - - - -
20.07.2018 21:00:00 22,4 18,5 4 2 E 1005,6 10
20.07.2018 20:00:00 - - - - - - -
20.07.2018 19:00:00 - - - - - - -
20.07.2018 18:00:00 24,3 19,3 4 2 SE 1004,2 10
20.07.2018 17:00:00 - - - - - - -
20.07.2018 16:00:00 - - - - - - -
20.07.2018 15:00:00 25,2 19,4 7 4 SSE 1003,7 10
20.07.2018 14:00:00 - - - - - - -
20.07.2018 13:00:00 - - - - - - -
20.07.2018 12:00:00 22,8 19,7 7 4 SE 1003,6 10
20.07.2018 11:00:00 - - - - - - -
20.07.2018 10:00:00 - - - - - - -
20.07.2018 09:00:00 20,3 19,5 4 2 E 1002,4 4,0
20.07.2018 08:00:00 - - - - - - -
20.07.2018 07:00:00 - - - - - - -
20.07.2018 06:00:00 19,7 19,1 4 2 NNE 1001,9 2,0
20.07.2018 05:00:00 - - - - - - -
20.07.2018 04:00:00 - - - - - - -
20.07.2018 03:00:00 19,8 18,8 7 4 NNE 1002,0 -
20.07.2018 02:00:00 - - - - - - -
20.07.2018 01:00:00 - - - - - - -
20.07.2018 00:00:00 20,0 19,0 7 4 NNE 1002,5 -
19.07.2018 23:00:00 - - - - - - -
19.07.2018 22:00:00 - - - - - - -
19.07.2018 21:00:00 19,8 19,2 7 4 NNE 1003,0 4,0
19.07.2018 20:00:00 - - - - - - -
19.07.2018 19:00:00 - - - - - - -
19.07.2018 18:00:00 20,8 19,4 7 4 NE 1003,0 4,0
19.07.2018 17:00:00 - - - - - - -
19.07.2018 16:00:00 - - - - - - -
19.07.2018 15:00:00 23,4 16,9 11 6 NNE 1002,7 10
19.07.2018 14:00:00 - - - - - - -
19.07.2018 13:00:00 - - - - - - -
19.07.2018 12:00:00 21,9 17,5 7 4 NNE 1003,3 10
19.07.2018 11:00:00 - - - - - - -
19.07.2018 10:00:00 - - - - - - -
19.07.2018 09:00:00 21,4 16,5 11 6 NNE 1003,2 10
19.07.2018 08:00:00 - - - - - - -
19.07.2018 07:00:00 - - - - - - -
19.07.2018 06:00:00 20,9 17,3 7 4 NE 1003,2 10
19.07.2018 05:00:00 - - - - - - -
19.07.2018 04:00:00 - - - - - - -
19.07.2018 03:00:00 20,9 17,3 7 4 NE 1003,2 10
19.07.2018 02:00:00 - - - - - - -
19.07.2018 01:00:00 - - - - - - -
19.07.2018 00:00:00 21,1 17,0 4 2 E 1003,4 -
18.07.2018 23:00:00 - - - - - - -
18.07.2018 22:00:00 - - - - - - -
18.07.2018 21:00:00 21,7 17,8 7 4 NE 1003,1 10
18.07.2018 20:00:00 - - - - - - -
18.07.2018 19:00:00 - - - - - - -
18.07.2018 18:00:00 21,2 18,0 7 4 NE 1002,8 10
18.07.2018 17:00:00 - - - - - - -
18.07.2018 16:00:00 - - - - - - -
18.07.2018 15:00:00 21,1 17,8 11 6 NNE 1003,3 10
18.07.2018 14:00:00 - - - - - - -
18.07.2018 13:00:00 - - - - - - -
18.07.2018 12:00:00 24,0 16,6 11 6 NNE 1003,3 10
18.07.2018 11:00:00 - - - - - - -
18.07.2018 10:00:00 - - - - - - -
18.07.2018 09:00:00 22,1 17,2 7 4 NE 1004,2 10
18.07.2018 08:00:00 - - - - - - -
18.07.2018 07:00:00 - - - - - - -
18.07.2018 06:00:00 20,7 17,2 11 6 NNE 1004,3 10
18.07.2018 05:00:00 - - - - - - -
18.07.2018 04:00:00 - - - - - - -
18.07.2018 03:00:00 20,9 17,5 4 2 N 1004,7 -
18.07.2018 02:00:00 - - - - - - -
18.07.2018 01:00:00 - - - - - - -
18.07.2018 00:00:00 23,1 17,5 4 2 NNE 1005,2 -
17.07.2018 23:00:00 - - - - - - -
17.07.2018 22:00:00 - - - - - - -
17.07.2018 21:00:00 25,8 17,0 11 6 NNE 1005,3 10
17.07.2018 20:00:00 - - - - - - -

tt = Température de l'air
td = dewpoint
ff = Vitesse du vent
dd = Direction du vent
ppp = reduced air pressure
vv = visibility

stations d'obs. à proximité